Date String (YYYY-MM-DD hh:mm:ss) UTC,Instrument flags,absolute air pressure of the measurement (hPa),sample flow rate (lpm),inlet stack bypass flow (lpm),air temperature of the measurement (°C),ambient temperature measured by the external sensor (°C),aerosol sample conditioner tube jacket temperature (°C),OPC LED temperature (°C),internal box temperature (°C),relative humidity of the measurement (%),span deviation,mass concentration of particles derived from Lorenz-Mie calculation of OPC scattering (μg/m³),mass concentration of particles derived from Lorenz-Mie calculation of OPC scattering (μg/m³),mass concentration of particles derived from Lorenz-Mie calculation of OPC scattering (μg/m³)
DateTimeUTC,F1_M11,P_M11,Q1_M11,Q2_M11,T1_M11,T2_M11,T3_M11,T4_M11,T5_M11,U1_M11,ZSPAN_M11,X0_M11,X2_M11,X1_M11
2024-03-09 13:00:00,SystemResetWarning,0831.8,5.00,000.00,018.7,017.9,000.0,027.2,020.1,11.9,0000.0,0003.61,0001.88,0001.59
2024-03-09 13:01:00,SystemResetWarning,0831.8,5.00,000.00,018.6,017.5,000.0,027.2,020.0,12.0,0000.0,0003.62,0001.89,0001.58
2024-03-09 13:02:00,SystemResetWarning,0831.9,5.00,000.00,018.5,017.2,000.0,027.3,020.0,12.1,0000.0,0003.61,0001.88,0001.56
2024-03-09 13:03:00,SystemResetWarning,0831.9,5.00,000.00,018.4,017.0,000.0,027.3,020.0,12.1,0000.0,0003.68,0001.84,0001.53
2024-03-09 13:04:00,SystemResetWarning,0831.9,5.02,000.00,018.5,017.8,000.0,027.4,020.4,12.0,0000.0,0003.64,0001.81,0001.51
2024-03-09 13:05:00,SystemResetWarning,0831.9,5.00,000.00,018.7,018.7,000.0,027.4,020.9,11.8,0000.0,0003.56,0001.78,0001.49
2024-03-09 13:06:00,SystemResetWarning,0832.0,4.99,000.00,019.0,019.3,000.0,027.4,021.3,11.7,0000.0,0003.50,0001.76,0001.48
2024-03-09 13:07:00,SystemResetWarning,0831.9,4.99,000.00,019.0,019.1,000.0,027.4,021.0,11.6,0000.0,0003.40,0001.72,0001.45
2024-03-09 13:08:00,SystemResetWarning,0831.9,5.01,000.00,018.9,018.7,000.0,027.4,020.6,11.6,0000.0,0003.38,0001.70,0001.44
2024-03-09 13:09:00,SystemResetWarning,0831.9,5.00,000.00,018.8,018.2,000.0,027.3,020.3,11.7,0000.0,0003.23,0001.65,0001.41
2024-03-09 13:10:00,SystemResetWarning,0831.9,5.00,000.00,018.7,017.7,000.0,027.3,020.0,11.8,0000.0,0002.67,0001.58,0001.38
2024-03-09 13:11:00,SystemResetWarning,0832.0,5.00,000.00,018.6,017.3,000.0,027.3,020.0,11.9,0000.0,0002.06,0001.55,0001.35
2024-03-09 13:12:00,SystemResetWarning,0832.0,5.00,000.00,018.5,017.0,000.0,027.3,020.0,11.9,0000.0,0002.00,0001.52,0001.34
2024-03-09 13:13:00,SystemResetWarning,0831.9,5.01,000.00,018.5,017.2,000.0,027.4,020.2,12.0,0000.0,0001.96,0001.50,0001.33
2024-03-09 13:14:00,SystemResetWarning,0832.0,5.01,000.00,018.6,018.2,000.0,027.4,020.7,11.9,0000.0,0001.77,0001.46,0001.32
2024-03-09 13:15:00,SystemResetWarning,0832.0,4.99,000.00,018.9,019.1,000.0,027.4,021.1,11.8,0000.0,0001.75,0001.45,0001.31
2024-03-09 13:16:00,SystemResetWarning,0832.0,4.99,000.00,019.0,019.0,000.0,027.4,021.0,11.6,0000.0,0001.77,0001.45,0001.30
2024-03-09 13:17:00,SystemResetWarning,0831.9,4.99,000.00,018.9,018.6,000.0,027.3,020.6,11.7,0000.0,0001.76,0001.43,0001.29
2024-03-09 13:18:00,SystemResetWarning,0831.9,5.00,000.00,018.8,018.2,000.0,027.3,020.3,11.8,0000.0,0001.76,0001.42,0001.27
2024-03-09 13:19:00,SystemResetWarning,0832.0,4.99,000.00,018.6,017.7,000.0,027.2,020.0,11.8,0000.0,0001.79,0001.41,0001.25
2024-03-09 13:20:00,SystemResetWarning,0832.0,5.00,000.00,018.5,017.3,000.0,027.3,020.0,11.7,0000.0,0001.81,0001.40,0001.24
2024-03-09 13:21:00,SystemResetWarning,0832.0,5.01,000.00,018.5,017.1,000.0,027.3,020.0,11.8,0000.0,0001.78,0001.37,0001.22
2024-03-09 13:22:00,SystemResetWarning,0832.0,5.00,000.00,018.5,017.8,000.0,027.4,020.4,11.8,0000.0,0001.86,0001.40,0001.22
2024-03-09 13:23:00,SystemResetWarning,0832.0,5.00,000.00,018.8,018.8,000.0,027.4,020.9,11.7,0000.0,0001.86,0001.38,0001.20
2024-03-09 13:24:00,SystemResetWarning,0832.0,5.00,000.00,019.0,019.2,000.0,027.4,021.1,11.5,0000.0,0001.85,0001.35,0001.17
2024-03-09 13:25:00,SystemResetWarning,0832.0,4.99,000.00,018.9,018.8,000.0,027.4,020.8,11.5,0000.0,0002.70,0001.33,0001.14
2024-03-09 13:26:00,SystemResetWarning,0832.0,5.00,000.00,018.8,018.3,000.0,027.3,020.4,11.5,0000.0,0003.02,0001.31,0001.11
2024-03-09 13:27:00,SystemResetWarning,0832.0,4.99,000.00,018.7,017.7,000.0,027.3,020.1,11.5,0000.0,0003.15,0001.35,0001.10
2024-03-09 13:28:00,SystemResetWarning,0832.0,5.01,000.00,018.6,017.3,000.0,027.3,020.0,11.6,0000.0,0003.23,0001.37,0001.08
2024-03-09 13:29:00,SystemResetWarning,0832.0,5.00,000.00,018.5,016.9,000.0,027.3,020.0,11.6,0000.0,0003.25,0001.36,0001.07
2024-03-09 13:30:00,SystemResetWarning,0832.0,5.01,000.00,018.5,017.1,000.0,027.4,020.2,11.6,0000.0,0003.21,0001.34,0001.06
2024-03-09 13:31:00,SystemResetWarning,0832.1,5.01,000.00,018.6,018.2,000.0,027.4,020.7,11.7,0000.0,0003.39,0001.36,0001.05
2024-03-09 13:32:00,SystemResetWarning,0832.1,5.00,000.00,018.9,019.1,000.0,027.5,021.2,11.6,0000.0,0003.51,0001.40,0001.06
2024-03-09 13:33:00,SystemResetWarning,0832.1,4.99,000.00,019.0,019.1,000.0,027.4,021.0,11.4,0000.0,0003.43,0001.37,0001.05
2024-03-09 13:34:00,SystemResetWarning,0832.0,4.99,000.00,018.9,018.7,000.0,027.4,020.7,11.4,0000.0,0003.45,0001.39,0001.05
2024-03-09 13:35:00,SystemResetWarning,0832.0,5.01,000.00,018.8,018.2,000.0,027.3,020.4,11.5,0000.0,0003.60,0001.44,0001.06
2024-03-09 13:36:00,SystemResetWarning,0832.1,5.01,000.00,018.7,017.8,000.0,027.3,020.1,11.7,0000.0,0003.24,0001.49,0001.06
2024-03-09 13:37:00,SystemResetWarning,0832.1,4.99,000.00,018.6,017.3,000.0,027.3,020.0,11.9,0000.0,0002.84,0001.51,0001.06
2024-03-09 13:38:00,SystemResetWarning,0832.1,5.01,000.00,018.5,017.0,000.0,027.3,020.0,11.9,0000.0,0002.76,0001.47,0001.05
2024-03-09 13:39:00,SystemResetWarning,0832.0,5.01,000.00,018.5,017.1,000.0,027.4,020.1,12.0,0000.0,0002.74,0001.43,0001.04
2024-03-09 13:40:00,SystemResetWarning,0832.1,4.99,000.00,018.6,018.2,000.0,027.4,020.7,11.9,0000.0,0002.83,0001.47,0001.04
2024-03-09 13:41:00,SystemResetWarning,0832.2,5.01,000.00,018.9,019.2,000.0,027.5,021.2,11.7,0000.0,0002.83,0001.47,0001.04
2024-03-09 13:42:00,SystemResetWarning,0832.1,4.99,000.00,019.0,019.2,000.0,027.4,021.1,11.6,0000.0,0002.67,0001.45,0001.04
2024-03-09 13:43:00,SystemResetWarning,0832.1,4.99,000.00,018.9,018.8,000.0,027.4,020.7,11.6,0000.0,0002.56,0001.42,0001.02
2024-03-09 13:44:00,SystemResetWarning,0832.0,5.01,000.00,018.8,018.3,000.0,027.3,020.4,11.7,0000.0,0002.59,0001.42,0001.01
2024-03-09 13:45:00,SystemResetWarning,0832.1,4.99,000.00,018.7,017.8,000.0,027.3,020.1,11.7,0000.0,0002.57,0001.41,0001.00
2024-03-09 13:46:00,SystemResetWarning,0832.1,5.00,000.00,018.6,017.4,000.0,027.3,020.0,11.9,0000.0,0002.43,0001.37,0001.00
2024-03-09 13:47:00,SystemResetWarning,0832.1,5.00,000.00,018.5,017.1,000.0,027.3,020.0,11.9,0000.0,0002.18,0001.35,0000.99
2024-03-09 13:48:00,SystemResetWarning,0832.1,5.01,000.00,018.5,017.1,000.0,027.3,020.1,12.0,0000.0,0002.08,0001.35,0001.00
2024-03-09 13:49:00,SystemResetWarning,0832.2,5.01,000.00,018.6,018.2,000.0,027.4,020.7,11.9,0000.0,0002.13,0001.39,0001.00
2024-03-09 13:50:00,SystemResetWarning,0832.2,5.00,000.00,018.9,019.2,000.0,027.5,021.2,11.7,0000.0,0002.79,0001.39,0001.01
2024-03-09 13:51:00,SystemResetWarning,0832.2,4.99,000.00,019.1,019.3,000.0,027.4,021.2,11.6,0000.0,0003.24,0001.34,0001.03
2024-03-09 13:52:00,SystemResetWarning,0832.2,5.00,000.00,019.0,018.9,000.0,027.4,020.8,11.6,0000.0,0003.27,0001.36,0001.03
2024-03-09 13:53:00,SystemResetWarning,0832.2,5.01,000.00,018.9,018.4,000.0,027.4,020.5,11.7,0000.0,0003.30,0001.37,0001.04
2024-03-09 13:54:00,SystemResetWarning,0832.2,5.00,000.00,018.8,018.0,000.0,027.3,020.2,11.8,0000.0,0003.24,0001.35,0001.04
2024-03-09 13:55:00,SystemResetWarning,0832.2,4.99,000.00,018.7,017.6,000.0,027.3,020.0,12.0,0000.0,0003.21,0001.34,0001.05
2024-03-09 13:56:00,SystemResetWarning,0832.2,5.01,000.00,018.6,017.3,000.0,027.3,020.0,12.2,0000.0,0003.19,0001.34,0001.06
2024-03-09 13:57:00,SystemResetWarning,0832.2,5.02,000.00,018.5,017.0,000.0,027.3,020.0,12.3,0000.0,0003.11,0001.32,0001.05
2024-03-09 13:58:00,SystemResetWarning,0832.2,4.99,000.00,018.5,017.6,000.0,027.4,020.4,12.2,0000.0,0003.08,0001.29,0001.06
2024-03-09 13:59:00,SystemResetWarning,0832.2,5.01,000.00,018.8,018.8,000.0,027.5,021.0,12.2,0000.0,0003.15,0001.28,0001.05
